Back to catalog

FENGYUN 1C DEB

LostPO
NORAD 40687·DEBRIS·🇨🇳 China

Launched May 10, 1999 from Taiyuan Satellite Launch Center

Loading…

Next Passes (next 24 hours)

TLE

StaleSource: Space-Track

Epoch: Nov 13, 2016, 02:30 UTC

1 40687U 99025EWT 16318.10473189 +.00000159 +00000-0 +25339-3 0  9992
2 40687 099.1589 276.1511 0432317 121.8195 238.2784 13.28602894098327

Track FENGYUN 1C DEB in real time with AllMySat

Download on the App Store